Wind_Speed
35 35 34 33 33 33 34 34 35 36 39 40 40 36 33 34 35 35 34 33 32 29 26 25 23 20 19 19 20 22 25 28 31 33 34 36 39 38 38 38 37 36 34 32
35 34 33 34 35 35 36 36 35 35 39 42 43 41 37 37 37 37 36 35 33 30 28 27 25 23 21 21 22 24 27 29 32 35 37 40 41 40 39 38 34 32 30 29
33 31 32 34 35 35 35 35 34 34 38 41 43 43 40 38 38 38 37 36 34 32 30 29 28 26 25 25 26 27 29 32 35 38 39 41 43 42 40 36 32 29 28 27
33 32 32 34 34 34 33 31 32 33 36 39 41 41 39 39 38 38 38 38 36 34 33 32 31 31 30 30 30 32 34 36 39 41 42 43 43 43 40 37 32 30 27 26
31 30 32 33 32 33 29 30 32 34 36 38 39 40 37 37 38 37 38 39 38 37 35 34 33 34 34 34 35 37 38 41 42 44 45 46 45 45 41 38 34 31 27 27
31 31 33 33 33 33 31 33 34 35 35 36 35 37 37 37 36 37 38 39 39 38 37 36 36 36 37 38 39 41 43 43 44 45 46 47 45 42 39 37 35 32 30 29
29 31 32 33 34 34 33 34 34 34 35 34 31 34 36 36 36 37 38 38 39 38 38 37 38 38 40 41 42 43 43 43 43 44 44 45 45 43 40 39 37 35 33 33
27 28 30 31 31 31 31 33 34 34 33 30 29 31 33 33 33 34 35 35 35 35 36 36 36 37 38 38 39 39 40 41 41 42 44 46 45 45 44 42 40 39 38 39
24 24 25 27 29 31 32 33 32 32 31 30 30 31 31 31 30 31 32 32 32 32 32 32 31 31 32 33 34 35 37 39 41 43 45 46 46 46 45 44 42 42 42 44
22 22 24 26 31 33 34 34 32 32 30 29 30 29 28 28 28 29 31 31 31 32 32 32 32 32 33 34 35 36 38 41 43 45 47 48 48 47 46 46 46 46 47 48
21 22 24 27 32 35 35 35 34 33 31 29 28 28 29 29 29 30 31 32 31 32 32 33 33 34 35 36 38 39 41 43 45 47 49 50 50 50 49 49 49 49 51 53
21 22 24 28 31 34 35 35 33 32 31 31 30 31 30 30 30 31 32 33 33 33 33 34 34 36 37 39 41 43 45 47 49 50 50 51 52 52 52 52 53 54 55 56
23 24 25 28 31 34 34 34 34 34 33 33 32 34 33 33 34 35 35 35 35 35 35 35 36 37 39 41 43 46 48 50 52 52 53 54 54 55 56 56 56 57 57 58
25 27 27 29 31 33 34 35 35 35 35 36 36 36 38 38 39 40 40 40 39 37 37 38 38 40 41 44 46 48 50 52 54 56 57 57 58 58 58 58 58 57 58 58
29 29 30 31 33 34 35 35 36 37 37 37 38 40 40 41 42 42 42 41 40 39 39 40 42 44 45 47 50 52 54 55 57 58 58 58 58 58 57 57 57 58 58 58
32 33 33 34 35 37 38 38 38 39 39 39 39 40 40 41 42 41 39 39 39 40 41 43 45 47 49 51 53 55 57 57 58 57 57 57 56 56 56 56 57 56 56 56
33 34 35 36 37 38 40 39 40 40 41 41 41 42 43 41 39 39 39 40 41 43 45 47 48 50 52 54 55 55 55 55 55 55 55 55 54 54 55 55 55 54 53 53
31 34 35 36 37 38 38 38 38 38 38 39 40 40 39 39 38 38 38 40 41 42 44 45 47 49 51 52 53 53 54 53 53 53 53 53 53 52 52 51 50 50 49 49
25 27 30 32 34 36 36 36 35 35 34 34 34 34 35 35 35 36 36 37 39 41 43 45 47 49 50 51 51 51 51 51 51 50 50 50 49 48 48 47 46 46 46 46
21 22 24 26 27 29 30 30 31 32 31 31 32 32 34 35 35 36 38 39 41 43 44 46 47 48 48 48 48 48 48 48 48 47 47 46 45 44 44 43 43 43 43 43
19 19 20 21 22 24 24 25 26 26 26 28 30 32 33 34 36 37 38 40 41 42 43 43 44 44 45 45 45 45 45 44 44 43 42 41 41 40 40 40 40 40 41 41
17 17 17 18 19 19 19 21 23 23 24 25 27 28 29 31 32 34 35 36 37 38 39 40 40 41 41 41 41 40 40 39 39 38 37 37 37 37 38 38 39 39 39 39
15 15 15 15 16 16 17 18 20 21 22 23 24 25 26 27 29 30 31 32 33 34 35 36 37 37 37 36 36 35 34 34 34 34 34 35 36 36 37 37 37 37 36 35
14 13 14 14 14 16 16 16 17 18 19 20 22 23 25 26 27 28 29 30 31 31 31 31 31 31 30 30 30 29 30 31 32 33 34 35 35 36 36 35 34 33 31 29
14 13 13 13 14 15 16 17 17 18 19 20 22 23 24 25 26 26 26 26 26 26 26 25 25 25 25 25 26 27 29 30 32 33 34 34 34 34 33 31 29 27 25 22
14 13 13 13 14 15 16 17 18 19 19 20 21 21 21 22 21 21 21 21 20 20 20 20 20 21 22 24 25 27 29 30 32 32 32 32 31 30 28 25 23 20 18 16
Wind_Direction
235 234 233 233 234 235 235 234 232 232 235 239 244 247 247 250 255 259 262 264 265 266 265 264 265 270 277 286 293 298 301 303 303 303 301 299 295 292 292 289 283 279 275 273
235 234 232 232 232 233 234 235 233 231 234 238 243 247 249 251 254 257 261 265 266 267 265 265 265 268 274 280 285 291 294 295 296 296 294 293 291 288 290 291 295 287 281 278
234 233 231 232 233 234 235 236 235 233 233 238 242 245 247 248 251 255 259 263 265 264 263 263 263 266 271 275 281 285 288 290 292 291 288 285 286 286 288 291 297 297 293 288
231 229 229 231 233 235 236 237 237 235 234 238 242 245 245 247 248 251 256 260 262 262 260 261 263 266 270 275 281 285 287 289 289 289 285 282 284 285 290 294 299 300 301 302
230 230 230 230 232 234 235 234 234 235 236 238 243 248 247 247 248 249 254 258 260 262 262 262 264 267 272 277 281 284 286 287 288 289 287 285 287 289 293 299 303 308 306 305
227 227 228 228 228 231 228 230 233 235 238 240 240 247 250 249 250 250 253 256 259 261 262 264 266 269 273 277 280 282 284 285 285 287 288 290 294 297 303 311 313 310 308 307
226 228 228 228 228 228 226 227 230 233 237 239 239 245 250 252 253 253 254 255 258 261 263 265 267 269 272 274 276 279 280 281 283 286 289 296 303 308 313 318 316 311 306 305
226 226 228 228 228 226 222 225 229 233 235 237 238 244 248 251 252 252 253 255 257 260 262 265 267 269 271 272 274 276 277 279 283 287 291 300 304 309 311 314 312 308 304 304
225 222 224 223 219 218 217 222 228 235 237 238 241 245 248 249 250 249 251 254 257 260 263 265 267 270 272 273 274 276 279 282 286 291 296 300 304 307 308 309 308 306 304 303
223 217 213 212 212 215 220 222 226 233 237 239 242 245 250 251 250 251 252 254 257 261 264 265 268 271 272 275 278 281 284 288 292 295 298 301 302 303 305 306 306 304 303 302
228 221 209 209 211 216 221 225 230 235 239 243 246 249 251 256 257 258 260 262 264 267 269 271 273 275 277 280 283 286 289 293 295 297 299 299 300 301 302 304 303 302 301 301
235 230 218 216 217 221 227 231 234 238 241 243 247 252 253 258 261 263 265 266 267 269 272 275 278 281 283 285 287 288 291 293 295 297 298 298 298 299 300 301 302 301 301 300
245 242 233 225 227 229 233 236 239 241 243 245 247 252 255 258 261 262 264 265 267 268 271 275 279 283 285 287 288 289 291 293 294 295 296 298 299 299 299 300 301 300 299 299
254 251 244 238 236 238 240 242 244 245 247 249 250 252 254 257 259 260 261 263 264 267 271 276 280 284 286 288 289 290 292 293 293 294 296 297 299 299 299 299 299 299 298 298
258 256 252 248 245 244 246 247 248 249 249 251 252 254 255 257 259 261 261 261 264 268 273 278 282 285 287 289 290 291 293 294 295 296 297 298 299 299 298 298 298 297 297 296
260 259 256 254 252 249 249 250 252 253 253 255 256 258 259 260 261 261 264 267 269 273 278 281 284 287 289 290 291 293 294 296 297 297 297 298 298 297 297 296 296 296 296 295
263 262 260 259 257 257 255 253 253 253 254 257 261 263 265 266 269 271 274 276 278 281 284 286 287 289 291 292 294 295 296 297 297 297 297 297 296 296 296 296 296 296 296 295
267 263 262 262 262 261 261 260 261 262 263 264 266 269 273 276 277 279 280 281 282 283 285 286 288 290 292 294 295 295 296 297 297 296 296 296 296 296 296 296 295 295 295 295
276 270 266 265 265 265 266 268 269 270 270 271 272 274 276 277 278 279 279 280 281 283 286 288 290 292 293 294 295 295 296 296 296 295 295 295 296 295 295 295 294 294 294 295
282 276 272 270 269 269 267 267 268 270 271 270 270 270 271 273 274 276 278 280 283 285 287 289 290 291 292 293 294 295 295 295 295 295 295 295 295 294 294 294 294 295 295 296
288 281 276 274 273 271 269 268 267 267 267 267 268 269 271 273 275 278 280 282 284 286 288 289 290 291 293 293 294 295 295 295 296 296 295 295 294 295 295 295 296 296 296 296
289 284 278 274 271 268 267 266 264 265 266 267 268 269 272 274 276 278 280 283 285 286 288 289 291 292 293 293 294 294 295 295 296 296 296 296 296 296 296 296 296 296 296 296
286 282 278 274 271 269 267 265 265 266 267 268 269 271 273 275 278 279 282 284 286 288 289 290 291 292 293 294 295 296 297 298 298 298 298 298 298 298 298 298 298 298 298 299
288 281 276 272 268 266 266 266 266 267 269 271 272 275 277 278 280 282 284 286 288 290 291 292 292 294 295 297 298 299 300 301 301 301 301 301 300 300 300 300 300 301 301 302
289 284 279 275 271 270 270 270 271 272 273 275 276 278 280 282 284 286 287 288 290 291 293 295 297 299 301 303 304 304 305 305 305 305 304 304 303 302 303 303 303 304 303 304
291 289 286 282 279 278 276 275 274 274 275 278 279 280 282 284 285 287 289 292 294 297 299 301 304 306 308 309 310 310 310 310 309 308 307 307 305 305 305 305 306 306 306 307
Height
5799 5804 5809 5814 5818 5822 5825 5829 5832 5836 5838 5838 5840 5843 5847 5848 5849 5850 5850 5852 5853 5855 5857 5859 5860 5861 5861 5861 5861 5859 5858 5855 5852 5849 5846 5843 5839 5835 5831 5827 5822 5820 5819 5818
5794 5799 5804 5806 5810 5814 5818 5822 5826 5831 5832 5832 5834 5836 5841 5843 5844 5844 5845 5846 5847 5849 5850 5852 5853 5854 5855 5856 5855 5854 5852 5849 5846 5843 5839 5836 5831 5827 5824 5819 5816 5814 5812 5812
5788 5794 5797 5800 5804 5808 5811 5815 5820 5823 5824 5825 5827 5830 5835 5838 5838 5839 5839 5840 5841 5842 5843 5845 5846 5847 5848 5848 5848 5847 5845 5843 5840 5837 5832 5828 5824 5820 5816 5813 5811 5808 5807 5806
5782 5787 5791 5794 5798 5801 5806 5809 5812 5814 5817 5818 5820 5823 5828 5831 5833 5833 5833 5833 5834 5835 5837 5838 5839 5840 5840 5841 5840 5839 5838 5836 5833 5829 5824 5819 5814 5811 5808 5806 5804 5802 5800 5799
5777 5782 5785 5789 5793 5796 5800 5801 5803 5806 5809 5812 5813 5816 5822 5824 5826 5827 5827 5827 5828 5829 5830 5832 5833 5833 5834 5834 5833 5831 5830 5828 5825 5821 5816 5812 5807 5804 5802 5799 5797 5795 5794 5793
5771 5775 5779 5783 5786 5789 5792 5794 5796 5799 5802 5806 5809 5811 5814 5817 5819 5820 5820 5820 5821 5822 5823 5824 5825 5826 5826 5826 5825 5824 5822 5820 5817 5813 5809 5804 5799 5796 5792 5791 5790 5789 5788 5786
5767 5770 5773 5777 5780 5783 5786 5789 5792 5795 5797 5801 5805 5806 5808 5809 5811 5812 5813 5813 5814 5815 5816 5817 5818 5818 5819 5818 5817 5816 5814 5812 5809 5805 5801 5796 5793 5790 5786 5784 5783 5782 5781 5780
5762 5766 5769 5772 5776 5779 5782 5785 5788 5791 5793 5796 5799 5800 5802 5802 5804 5805 5805 5806 5807 5808 5809 5810 5811 5811 5811 5810 5809 5808 5806 5803 5801 5797 5794 5790 5786 5783 5780 5778 5777 5775 5773 5771
5758 5762 5765 5768 5772 5775 5778 5780 5784 5786 5788 5791 5793 5794 5795 5796 5797 5798 5800 5800 5801 5802 5803 5804 5804 5804 5803 5803 5801 5800 5798 5795 5792 5789 5786 5783 5779 5776 5773 5771 5769 5767 5764 5762
5754 5757 5760 5764 5767 5770 5774 5776 5779 5781 5783 5785 5787 5788 5790 5791 5792 5793 5794 5796 5797 5797 5798 5798 5798 5797 5796 5795 5793 5791 5789 5787 5784 5781 5777 5774 5771 5768 5765 5762 5759 5757 5754 5750
5751 5754 5757 5759 5762 5765 5768 5771 5773 5776 5778 5780 5782 5786 5784 5785 5786 5788 5789 5790 5790 5791 5791 5791 5790 5789 5788 5786 5785 5782 5780 5777 5774 5771 5768 5765 5761 5758 5755 5752 5749 5745 5742 5738
5748 5751 5753 5756 5757 5759 5762 5764 5768 5771 5773 5775 5777 5781 5779 5780 5781 5782 5782 5783 5783 5783 5783 5783 5782 5781 5780 5778 5776 5774 5771 5768 5765 5761 5758 5754 5751 5748 5744 5741 5737 5733 5728 5724
5745 5747 5749 5751 5754 5755 5756 5759 5762 5764 5766 5768 5771 5775 5773 5774 5774 5775 5775 5775 5775 5775 5775 5774 5773 5772 5771 5769 5767 5765 5762 5759 5755 5751 5747 5743 5739 5736 5732 5728 5724 5719 5715 5710
5740 5742 5744 5747 5747 5749 5751 5753 5755 5758 5760 5761 5763 5765 5765 5766 5766 5766 5766 5766 5766 5766 5765 5765 5763 5762 5761 5759 5757 5754 5751 5748 5744 5740 5736 5732 5727 5723 5719 5714 5710 5705 5700 5695
5733 5735 5736 5738 5740 5742 5744 5746 5748 5750 5751 5753 5755 5756 5756 5757 5757 5757 5756 5756 5756 5756 5755 5754 5753 5752 5750 5748 5746 5743 5739 5736 5732 5728 5724 5719 5714 5710 5705 5700 5695 5690 5686 5681
5725 5727 5728 5730 5732 5734 5736 5738 5740 5741 5742 5744 5746 5747 5747 5747 5747 5747 5746 5745 5745 5745 5745 5744 5742 5740 5738 5736 5733 5730 5726 5723 5719 5715 5710 5706 5701 5696 5691 5686 5681 5676 5671 5666
5717 5719 5720 5721 5722 5724 5727 5730 5731 5733 5734 5735 5736 5738 5738 5737 5737 5736 5736 5735 5735 5735 5734 5733 5731 5728 5726 5723 5720 5716 5712 5709 5705 5700 5696 5692 5687 5682 5677 5672 5667 5662 5657 5652
5709 5710 5711 5712 5714 5715 5720 5720 5722 5723 5724 5725 5727 5728 5727 5727 5727 5726 5726 5725 5725 5724 5723 5721 5718 5716 5713 5710 5706 5703 5699 5695 5691 5687 5682 5678 5673 5668 5663 5658 5653 5648 5644 5639
5701 5701 5702 5704 5705 5706 5710 5711 5712 5713 5715 5717 5717 5718 5718 5718 5717 5717 5716 5715 5715 5713 5712 5709 5707 5704 5701 5697 5694 5690 5686 5681 5677 5673 5668 5664 5659 5654 5649 5645 5640 5636 5632 5627
5695 5695 5696 5696 5697 5699 5702 5703 5703 5706 5707 5708 5708 5709 5709 5709 5710 5709 5708 5706 5704 5703 5701 5698 5695 5692 5689 5685 5681 5677 5673 5668 5664 5660 5655 5650 5646 5641 5637 5633 5628 5624 5620 5616
5690 5690 5690 5690 5691 5692 5694 5695 5696 5699 5700 5700 5699 5700 5700 5700 5700 5699 5698 5696 5694 5692 5690 5687 5684 5681 5677 5673 5669 5665 5660 5656 5651 5647 5643 5638 5634 5630 5625 5621 5617 5613 5609 5605
5686 5685 5685 5685 5686 5688 5687 5688 5690 5691 5691 5692 5692 5692 5692 5692 5691 5690 5689 5687 5685 5683 5680 5677 5674 5670 5666 5662 5658 5654 5649 5645 5640 5636 5632 5627 5623 5619 5615 5611 5607 5603 5599 5595
5682 5682 5681 5682 5684 5682 5682 5683 5684 5684 5685 5685 5685 5685 5685 5684 5683 5682 5681 5679 5677 5674 5671 5668 5664 5661 5657 5652 5648 5644 5639 5635 5630 5626 5622 5617 5613 5609 5604 5600 5596 5592 5588 5585
5678 5677 5677 5677 5678 5678 5678 5678 5678 5679 5679 5679 5679 5678 5678 5677 5676 5675 5673 5671 5668 5666 5662 5659 5656 5652 5648 5644 5639 5635 5631 5626 5621 5617 5612 5607 5603 5598 5594 5590 5586 5583 5579 5576
5674 5674 5674 5674 5674 5674 5674 5674 5674 5673 5673 5673 5672 5672 5671 5670 5669 5667 5665 5663 5661 5658 5655 5652 5648 5645 5641 5637 5632 5628 5623 5618 5613 5608 5603 5598 5593 5589 5585 5581 5578 5575 5572 5570
5671 5671 5670 5670 5670 5670 5669 5669 5668 5668 5667 5667 5666 5665 5664 5663 5662 5660 5659 5657 5655 5652 5649 5646 5643 5639 5635 5631 5626 5621 5615 5610 5605 5599 5594 5589 5585 5581 5577 5574 5571 5569 5567 5565